FW3211 Weather Reports


Display with metric or nautical units.
time (UTC)temp
F
wind
direction
speed
MPH
gust
MPH
rain 1hr
in
rain 24hr
in
rain mn
in
humidity
%
barometer
mb
20260507180434 55 326 1.0 3.0 0.00 0.05 0.05 79 1014.9
20260507175933 55 327 2.0 2.0 0.00 0.05 0.05 79 1015.0
20260507175716 56 327 2.0 2.0 0.00 0.05 0.05 79 1015.0
20260507174933 55 327 2.0 3.0 0.00 0.05 0.05 78 1014.9
20260507174437 56 327 2.0 3.0 0.00 0.05 0.05 78 1015.0
20260507173934 56 23 2.0 3.0 0.00 0.05 0.05 78 1015.1
20260507173443 56 23 1.0 2.0 0.00 0.05 0.05 79 1015.0
20260507172937 56 23 2.0 2.0 0.00 0.05 0.05 79 1014.9
20260507172433 56 23 2.0 2.0 0.00 0.05 0.05 78 1015.0
20260507171932 56 23 2.0 3.0 0.00 0.05 0.05 77 1015.0
20260507171436 57 273 1.0 3.0 0.00 0.05 0.05 77 1015.0
20260507170945 57 306 1.0 3.0 0.00 0.05 0.05 77 1014.9
20260507170737 57 22 1.0 3.0 0.00 0.05 0.05 76 1014.9
20260507170240 57 274 1.0 4.0 0.00 0.05 0.05 76 1014.8
20260507165952 57 274 1.0 4.0 0.00 0.05 0.05 76 1014.9
20260507164933 57 268 1.0 3.0 0.00 0.05 0.05 76 1014.7
20260507164433 58 267 1.0 3.0 0.00 0.05 0.05 76 1014.8
20260507163937 58 127 1.0 2.0 0.00 0.05 0.05 76 1014.8
20260507163432 58 127 1.0 4.0 0.00 0.05 0.05 76 1014.9
20260507162933 58 127 1.0 4.0 0.00 0.05 0.05 75 1014.8
20260507162436 58 137 1.0 4.0 0.00 0.05 0.05 76 1014.8
20260507161932 58 129 1.0 5.0 0.00 0.05 0.05 76 1014.8
20260507161433 58 182 1.0 5.0 0.00 0.05 0.05 75 1014.8
20260507160932 58 232 2.0 3.0 0.00 0.05 0.05 75 1014.9
20260507160433 58 178 2.0 4.0 0.00 0.05 0.05 75 1014.9
20260507155934 59 75 1.0 4.0 0.00 0.05 0.05 75 1014.9
20260507155747 59 172 2.0 7.0 0.00 0.05 0.05 74 1014.9
20260507155743 59 86 2.0 7.0 0.00 0.05 0.05 74 1014.9
20260507154711 59 144 2.0 7.0 0.00 0.05 0.05 75 1015.0
20260507153923 59 154 1.0 7.0 0.00 0.05 0.05 75 1015.1
20260507153456 58 162 3.0 8.0 0.00 0.05 0.05 73 1015.0
20260507153441 58 156 2.0 8.0 0.00 0.05 0.05 74 1015.0
20260507152412 58 119 2.0 8.0 0.00 0.05 0.05 76 1014.9
20260507151912 58 125 1.0 3.0 0.00 0.05 0.05 76 1015.0
20260507151413 58 141 1.0 6.0 0.00 0.05 0.05 76 1015.0
20260507150911 58 193 2.0 7.0 0.00 0.05 0.05 77 1015.0
20260507150451 58 184 2.0 7.0 0.00 0.05 0.05 76 1014.9
20260507150428 58 152 2.0 7.0 0.00 0.05 0.05 76 1014.9
20260507145412 59 213 2.0 7.0 0.00 0.05 0.05 76 1015.0
20260507144914 59 208 2.0 6.0 0.00 0.05 0.05 76 1015.0
20260507144413 59 119 2.0 4.0 0.00 0.05 0.05 77 1015.0
20260507143912 58 235 2.0 8.0 0.00 0.05 0.05 76 1015.1
20260507143647 58 168 3.0 8.0 0.00 0.05 0.05 76 1015.1
20260507142909 58 122 2.0 7.0 0.00 0.05 0.05 77 1015.1
20260507142406 58 97 3.0 8.0 0.00 0.05 0.05 77 1015.2
20260507141911 58 165 3.0 8.0 0.00 0.05 0.05 77 1015.3
20260507141404 58 93 2.0 4.0 0.00 0.05 0.05 77 1015.2
20260507141154 58 166 2.0 6.0 0.00 0.05 0.05 77 1015.2
20260507140654 58 166 2.0 10.0 0.00 0.05 0.05 77 1015.3
20260507135907 58 139 2.0 10.0 0.00 0.05 0.05 76 1015.3
20260507135404 58 160 2.0 7.0 0.00 0.05 0.05 77 1015.3
20260507134905 58 133 2.0 7.0 0.00 0.05 0.05 76 1015.4
20260507134657 58 241 3.0 8.0 0.00 0.05 0.05 76 1015.3
20260507133907 58 101 3.0 9.0 0.00 0.05 0.05 77 1015.3
20260507133452 58 104 2.0 7.0 0.00 0.05 0.05 77 1015.4
20260507133434 58 62 3.0 9.0 0.00 0.05 0.05 77 1015.3
20260507132650 58 70 2.0 7.0 0.00 0.05 0.05 77 1015.4
20260507131906 58 209 2.0 7.0 0.00 0.05 0.05 77 1015.3
20260507131645 58 276 2.0 7.0 0.00 0.05 0.05 77 1015.3
20260507130904 58 106 3.0 7.0 0.00 0.05 0.05 77 1015.3
20260507130406 58 143 2.0 7.0 0.00 0.05 0.05 77 1015.3
20260507125906 58 232 3.0 9.0 0.00 0.05 0.05 77 1015.4
20260507125718 58 197 3.0 8.0 0.00 0.05 0.05 76 1015.4
20260507125714 58 42 3.0 9.0 0.00 0.05 0.05 77 1015.4
20260507124407 58 207 3.0 12.0 0.00 0.05 0.05 76 1015.5
20260507123907 58 168 4.0 12.0 0.00 0.05 0.05 76 1015.4
20260507123409 58 148 3.0 11.0 0.00 0.05 0.05 76 1015.4
20260507122907 58 140 2.0 11.0 0.00 0.05 0.05 76 1015.4
20260507122647 58 110 2.0 7.0 0.00 0.05 0.05 76 1015.3
20260507121909 58 154 3.0 9.0 0.00 0.05 0.05 76 1015.3
20260507121652 58 170 4.0 11.0 0.00 0.05 0.05 75 1015.3
20260507120905 58 32 3.0 11.0 0.00 0.05 0.05 75 1015.3
20260507120646 58 120 3.0 8.0 0.00 0.05 0.05 75 1015.3
20260507115907 58 236 3.0 10.0 0.00 0.05 0.05 75 1015.4
20260507115405 58 149 4.0 10.0 0.00 0.05 0.05 75 1015.3
20260507114906 58 134 4.0 11.0 0.00 0.05 0.05 76 1015.4
20260507114406 58 99 3.0 11.0 0.00 0.05 0.05 75 1015.4
20260507113905 58 288 3.0 10.0 0.00 0.05 0.05 75 1015.4
20260507113653 59 176 4.0 12.0 0.00 0.05 0.05 75 1015.4
20260507112904 59 66 4.0 12.0 0.00 0.05 0.05 74 1015.5
20260507112405 59 168 3.0 10.0 0.00 0.05 0.05 74 1015.6
20260507111907 59 258 4.0 10.0 0.00 0.05 0.05 75 1015.5
20260507111406 58 200 4.0 11.0 0.00 0.05 0.05 74 1015.6
20260507110908 59 165 4.0 11.0 0.00 0.05 0.05 74 1015.5
20260507110412 59 225 4.0 11.0 0.00 0.05 0.05 74 1015.5
20260507105907 58 71 4.0 11.0 0.00 0.05 0.05 74 1015.6
20260507105405 58 185 4.0 11.0 0.00 0.05 0.05 75 1015.5
20260507104906 58 204 4.0 11.0 0.00 0.05 0.05 76 1015.4
20260507104406 58 135 4.0 11.0 0.00 0.05 0.05 76 1015.5
20260507103907 58 191 4.0 11.0 0.00 0.05 0.05 76 1015.6
20260507103408 58 159 5.0 13.0 0.00 0.05 0.05 76 1015.6
20260507102906 58 103 5.0 13.0 0.00 0.05 0.05 76 1015.6
20260507102406 58 147 5.0 15.0 0.00 0.05 0.05 76 1015.7
20260507102143 58 183 5.0 15.0 0.00 0.05 0.05 76 1015.6
20260507101406 58 102 5.0 12.0 0.00 0.05 0.05 76 1015.5
20260507100910 58 207 5.0 12.0 0.00 0.05 0.05 75 1015.6
20260507100708 58 136 5.0 11.0 0.00 0.05 0.05 75 1015.7
20260507095906 59 192 5.0 14.0 0.00 0.05 0.05 74 1015.6
20260507095403 59 185 4.0 14.0 0.00 0.05 0.05 73 1015.6
20260507094907 59 206 5.0 10.0 0.00 0.05 0.05 72 1015.6
20260507094416 58 191 5.0 13.0 0.00 0.05 0.05 72 1015.6
20260507094149 59 260 4.0 13.0 0.00 0.05 0.05 73 1015.6
20260507093406 59 131 4.0 11.0 0.00 0.05 0.05 73 1015.7
20260507093153 59 171 4.0 11.0 0.00 0.05 0.05 72 1015.6
20260507092405 59 158 4.0 10.0 0.00 0.05 0.05 72 1015.7
20260507091905 59 181 5.0 10.0 0.00 0.05 0.05 72 1015.7
20260507091418 60 97 5.0 14.0 0.00 0.05 0.05 74 1015.7
20260507090903 59 261 5.0 14.0 0.00 0.05 0.05 74 1015.7
20260507090411 59 152 5.0 11.0 0.00 0.05 0.05 75 1015.6
20260507085903 59 152 5.0 12.0 0.00 0.05 0.05 75 1015.5
20260507085404 59 80 4.0 12.0 0.00 0.05 0.05 74 1015.4
20260507085153 59 133 5.0 15.0 0.00 0.05 0.05 75 1015.5
20260507084404 59 221 5.0 15.0 0.00 0.05 0.05 74 1015.4
20260507083906 59 176 5.0 12.0 0.00 0.05 0.05 75 1015.4
20260507083406 59 244 5.0 10.0 0.00 0.05 0.05 76 1015.3
20260507082907 59 181 5.0 10.0 0.00 0.05 0.05 76 1015.2
20260507082710 59 118 4.0 11.0 0.00 0.05 0.05 76 1015.1
20260507081905 58 117 4.0 11.0 0.02 0.05 0.05 77 1015.2
20260507081404 58 179 4.0 12.0 0.03 0.05 0.05 78 1015.1
20260507081148 57 222 3.0 12.0 0.03 0.05 0.05 79 1015.2
20260507080401 56 181 2.0 8.0 0.03 0.05 0.05 78 1015.2
20260507075902 56 228 2.0 7.0 0.03 0.05 0.05 79 1015.1
20260507075401 56 184 3.0 7.0 0.03 0.05 0.05 79 1014.9
20260507074901 56 204 3.0 7.0 0.03 0.05 0.05 79 1014.9
20260507074402 56 243 2.0 6.0 0.03 0.05 0.05 79 1014.9
20260507073901 56 247 1.0 3.0 0.03 0.05 0.05 78 1014.8
20260507073401 56 94 0.0 2.0 0.03 0.05 0.05 77 1014.8
20260507072903 56 93 1.0 2.0 0.03 0.05 0.05 76 1014.8
20260507072401 57 93 1.0 4.0 0.03 0.05 0.04 76 1014.7
20260507071859 57 90 2.0 8.0 0.01 0.02 0.02 75 1014.8
20260507071358 57 116 3.0 8.0 0.00 0.02 0.02 74 1014.6
20260507071158 58 58 2.0 4.0 0.00 0.02 0.02 75 1014.7
20260507070354 57 235 2.0 5.0 0.00 0.02 0.02 76 1014.7
20260507070139 57 238 1.0 5.0 0.00 0.02 0.02 76 1014.7
20260507065357 56 82 1.0 4.0 0.00 0.02 0.02 77 1014.7
20260507064856 56 285 1.0 4.0 0.00 0.02 0.02 77 1014.6
20260507064354 56 268 1.0 3.0 0.00 0.02 0.02 77 1014.5
20260507063852 56 268 1.0 2.0 0.00 0.02 0.02 76 1014.5
20260507063351 56 268 1.0 3.0 0.00 0.02 0.02 75 1014.4
20260507062847 56 268 1.0 4.0 0.00 0.02 0.02 75 1014.4
20260507062341 56 102 1.0 4.0 0.00 0.02 0.02 75 1014.3
20260507061841 56 174 1.0 2.0 0.00 0.02 0.02 76 1014.4
20260507061629 56 174 1.0 3.0 0.00 0.04 0.02 76 1014.4
20260507060840 56 87 1.0 3.0 0.00 0.08 0.02 76 1014.4
20260507060339 56 210 1.0 2.0 0.00 0.08 0.02 76 1014.3
20260507055839 55 192 1.0 2.0 0.01 0.08 0.02 76 1014.3
20260507055339 55 245 0.0 2.0 0.02 0.08 0.02 77 1014.3
20260507054839 55 75 0.0 2.0 0.02 0.08 0.02 77 1014.3
20260507054339 55 75 1.0 3.0 0.02 0.08 0.02 77 1014.1
20260507054120 55 74 1.0 3.0 0.02 0.08 0.02 78 1014.1
20260507053339 55 66 1.0 3.0 0.02 0.08 0.02 78 1014.1
20260507052842 55 280 2.0 3.0 0.02 0.08 0.02 78 1013.9
20260507052336 55 4 1.0 3.0 0.02 0.08 0.02 78 1013.8
20260507052119 54 192 1.0 2.0 0.02 0.08 0.02 77 1013.8
20260507051332 55 192 1.0 2.0 0.02 0.08 0.02 78 1013.8
20260507051136 55 266 0.0 2.0 0.02 0.08 0.02 78 1013.7
20260507050332 55 266 1.0 3.0 0.02 0.08 0.02 77 1013.7
20260507045833 55 267 1.0 3.0 0.01 0.07 0.01 78 1013.7
20260507045334 54 156 0.0 2.0 0.00 0.06 0.00 78 1013.7
20260507044838 54 50 1.0 2.0 0.00 0.06 0.00 78 1013.5
20260507044335 54 50 1.0 3.0 0.00 0.06 0.00 78 1013.5
20260507043835 54 50 0.0 3.0 0.00 0.06 0.00 79 1013.5
20260507043339 54 298 1.0 3.0 0.00 0.07 0.00 79 1013.5
20260507042835 54 298 1.0 3.0 0.00 0.07 0.00 78 1013.4
20260507042335 54 60 0.0 2.0 0.00 0.11 0.00 79 1013.4
20260507041836 54 283 0.0 2.0 0.00 0.17 0.00 79 1013.3
20260507041335 54 283 0.0 2.0 0.00 0.17 0.00 79 1013.4
20260507040836 54 284 0.0 2.0 0.00 0.17 0.00 79 1013.4
20260507040340 54 284 1.0 3.0 0.00 0.17 0.00 79 1013.3
20260507035832 54 283 1.0 3.0 0.00 0.17 0.00 79 1013.3
20260507035333 54 283 1.0 3.0 0.00 0.17 0.00 79 1013.4
20260507034837 54 93 1.0 2.0 0.00 0.17 0.00 79 1013.4
20260507034334 54 93 1.0 4.0 0.00 0.17 0.00 79 1013.4
20260507033831 54 108 1.0 4.0 0.00 0.17 0.00 79 1013.3
20260507033333 54 291 1.0 2.0 0.00 0.17 0.00 79 1013.3
20260507033132 54 291 1.0 2.0 0.00 0.17 0.00 79 1013.4
20260507032332 54 290 1.0 2.0 0.00 0.17 0.00 79 1013.3
20260507031832 54 291 1.0 3.0 0.00 0.17 0.00 79 1013.3
20260507031333 54 279 1.0 3.0 0.00 0.18 0.00 79 1013.3
20260507030832 54 45 1.0 2.0 0.00 0.18 0.00 79 1013.2
20260507030334 54 45 1.0 3.0 0.00 0.18 0.00 79 1013.2
20260507025828 54 16 1.0 4.0 0.00 0.19 0.00 79 1013.2
20260507025329 54 81 1.0 4.0 0.00 0.20 0.00 79 1013.3
20260507025110 54 297 1.0 2.0 0.00 0.27 0.00 79 1013.2
20260507024325 54 297 1.0 4.0 0.00 0.45 0.00 79 1013.3
20260507023823 54 297 1.0 4.0 0.00 0.62 0.00 79 1013.3
20260507023326 54 297 1.0 3.0 0.00 0.71 0.00 79 1013.4
20260507022829 54 297 2.0 4.0 0.00 0.75 0.00 79 1013.4
20260507022605 54 297 2.0 4.0 0.00 0.77 0.00 79 1013.4
20260507021822 54 304 1.0 3.0 0.00 0.80 0.00 79 1013.3
20260507021321 54 304 1.0 3.0 0.00 0.82 0.00 79 1013.3
20260507020823 54 304 1.0 3.0 0.00 0.84 0.00 79 1013.3
20260507020323 54 304 1.0 2.0 0.00 0.87 0.00 79 1013.3
20260507015825 54 304 1.0 2.0 0.00 0.90 0.00 79 1013.4
20260507015324 54 304 1.0 2.0 0.00 0.96 0.00 80 1013.3
20260507014819 54 304 1.0 4.0 0.00 1.07 0.00 80 1013.3
20260507014318 54 304 2.0 4.0 0.00 1.08 0.00 80 1013.2
20260507014108 54 296 2.0 4.0 0.00 1.09 0.00 80 1013.2
20260507013318 54 293 2.0 3.0 0.00 1.09 0.00 80 1013.2
20260507012817 54 293 1.0 3.0 0.00 1.10 0.00 80 1013.2
20260507012318 54 293 0.0 2.0 0.00 1.11 0.00 80 1013.3
20260507011814 54 293 0.0 2.0 0.00 1.12 0.00 80 1013.3
20260507011315 54 293 1.0 2.0 0.00 1.12 0.00 80 1013.3
20260507010810 54 255 1.0 2.0 0.00 1.13 0.00 79 1013.3
20260507010308 54 255 1.0 3.0 0.00 1.13 0.00 80 1013.3
20260507005807 54 255 1.0 3.0 0.00 1.13 0.00 80 1013.4
20260507005306 54 255 1.0 3.0 0.00 1.13 0.00 80 1013.4
20260507005046 54 255 1.0 5.0 0.00 1.13 0.00 80 1013.4
20260507004305 54 250 1.0 5.0 0.00 1.13 0.00 80 1013.4
20260507003806 54 315 1.0 3.0 0.00 1.13 0.00 80 1013.4
20260507003347 54 295 1.0 2.0 0.00 1.13 0.00 80 1013.4
20260507003330 54 297 1.0 3.0 0.00 1.13 0.00 80 1013.3
20260507002305 54 295 1.0 2.0 0.00 1.13 0.00 80 1013.4
20260507001803 54 295 1.0 2.0 0.00 1.13 0.00 80 1013.3
20260507001302 54 295 1.0 3.0 0.00 1.13 0.00 80 1013.4
20260507000802 54 295 1.0 3.0 0.00 1.13 0.00 80 1013.4
20260507000302 54 300 1.0 3.0 0.00 1.13 0.00 80 1013.4
20260506235802 54 300 1.0 3.0 0.00 1.13 0.00 80 1013.4
20260506235306 54 301 1.0 3.0 0.00 1.13 0.00 80 1013.5
20260506234802 54 301 1.0 3.0 0.00 1.13 0.00 80 1013.5
20260506234303 54 237 1.0 4.0 0.00 1.13 0.00 80 1013.5
20260506234051 54 294 2.0 4.0 0.00 1.13 0.00 80 1013.6
20260506233308 54 295 2.0 3.0 0.00 1.13 0.00 80 1013.6
20260506232802 54 283 1.0 3.0 0.00 1.13 0.00 80 1013.7
20260506232306 55 315 1.0 3.0 0.00 1.13 0.00 80 1013.7
20260506232100 55 315 1.0 3.0 0.00 1.13 0.00 80 1013.6
20260506231253 55 260 2.0 6.0 0.00 1.13 0.00 80 1013.6
20260506230751 55 245 2.0 6.0 0.00 1.13 0.00 80 1013.6
20260506230249 55 236 2.0 6.0 0.00 1.13 0.00 80 1013.5
20260506225749 55 224 2.0 5.0 0.00 1.13 0.00 80 1013.5
20260506225249 55 183 1.0 4.0 0.00 1.13 0.00 80 1013.6
20260506224749 55 274 1.0 3.0 0.00 1.13 0.00 80 1013.6
20260506224249 55 225 1.0 4.0 0.00 1.13 0.00 80 1013.5
20260506224035 55 227 1.0 4.0 0.00 1.13 0.00 80 1013.5
20260506223248 55 239 2.0 9.0 0.00 1.13 0.00 80 1013.4
20260506222746 55 291 2.0 9.0 0.00 1.13 0.00 80 1013.4
20260506222250 55 232 2.0 6.0 0.00 1.13 0.00 79 1013.4
20260506222044 55 248 2.0 6.0 0.00 1.13 0.00 80 1013.4
20260506221527 55 207 1.0 6.0 0.00 1.13 0.00 80 1013.4
20260506221031 55 270 1.0 5.0 0.00 1.13 0.00 80 1013.4
20260506220242 55 233 1.0 4.0 0.00 1.13 0.00 80 1013.5
20260506215739 55 305 2.0 4.0 0.00 1.13 1.13 80 1013.5
20260506215242 55 298 2.0 4.0 0.00 1.13 1.13 80 1013.4
20260506214736 55 258 1.0 5.0 0.00 1.13 1.13 80 1013.5
20260506214236 55 207 1.0 6.0 0.00 1.13 1.13 80 1013.5
20260506213737 55 280 1.0 6.0 0.00 1.13 1.13 80 1013.5
20260506213239 55 287 1.0 4.0 0.00 1.13 1.13 80 1013.5
20260506212736 55 280 1.0 3.0 0.00 1.13 1.13 80 1013.5
20260506212239 55 281 1.0 4.0 0.00 1.13 1.13 80 1013.4
20260506211737 55 209 1.0 4.0 0.00 1.13 1.13 80 1013.5
20260506211236 55 258 1.0 3.0 0.00 1.13 1.13 80 1013.5
20260506210733 55 258 1.0 3.0 0.00 1.13 1.13 80 1013.5
20260506210233 55 146 1.0 3.0 0.00 1.13 1.13 80 1013.5
20260506205731 55 243 1.0 3.0 0.00 1.13 1.13 80 1013.5
20260506205232 55 244 1.0 3.0 0.00 1.13 1.13 80 1013.5
20260506204725 55 222 1.0 3.0 0.00 1.13 1.13 80 1013.5
20260506204222 55 147 1.0 2.0 0.00 1.13 1.13 80 1013.5
20260506203712 55 147 1.0 2.0 0.00 1.13 1.13 80 1013.4
20260506203218 55 280 1.0 4.0 0.00 1.13 1.13 80 1013.4
20260506203058 55 284 1.0 4.0 0.00 1.13 1.13 80 1013.4
20260506202801 55 280 1.0 4.0 0.00 1.13 1.13 80 1013.4
20260506201712 55 224 1.0 3.0 0.00 1.13 1.13 80 1013.3
20260506201206 55 224 1.0 3.0 0.00 1.13 1.13 80 1013.3
20260506200707 55 224 0.0 3.0 0.00 1.13 1.13 80 1013.2
20260506200206 55 224 1.0 5.0 0.00 1.13 1.13 80 1013.1
20260506195705 56 277 1.0 5.0 0.00 1.13 1.13 80 1013.1
20260506195209 56 111 0.0 2.0 0.00 1.13 1.13 80 1013.1
20260506194705 56 118 0.0 1.0 0.00 1.13 1.13 80 1013.0
20260506194259 56 118 0.0 1.0 0.00 1.13 1.13 80 1012.8
20260506194239 56 118 0.0 1.0 0.00 1.13 1.13 80 1012.9
20260506193208 56 118 0.0 2.0 0.00 1.13 1.13 80 1012.7
20260506193006 56 118 0.0 2.0 0.00 1.13 1.13 80 1012.6
20260506192155 56 118 0.0 2.0 0.00 1.13 1.13 80 1012.6
20260506191652 56 118 0.0 2.0 0.00 1.13 1.13 80 1012.5
20260506191156 56 118 1.0 4.0 0.00 1.13 1.13 80 1012.4
20260506190655 56 117 2.0 6.0 0.00 1.13 1.13 79 1012.4
20260506190151 56 170 2.0 6.0 0.00 1.13 1.13 79 1012.3
20260506185654 56 162 2.0 8.0 0.00 1.13 1.13 79 1012.2
20260506185152 56 199 3.0 8.0 0.00 1.13 1.13 79 1012.1
20260506184652 56 165 2.0 7.0 0.00 1.13 1.13 80 1012.1
20260506184152 56 129 2.0 7.0 0.00 1.13 1.13 80 1012.1
20260506183653 56 184 2.0 6.0 0.00 1.13 1.13 79 1011.9
20260506183151 56 199 2.0 4.0 0.00 1.13 1.13 79 1012.0
20260506182652 56 138 2.0 5.0 0.00 1.13 1.13 79 1011.9
20260506182153 56 215 2.0 5.0 0.00 1.13 1.13 79 1011.9
20260506181651 56 221 2.0 6.0 0.00 1.13 1.13 79 1011.9
20260506181145 56 271 2.0 6.0 0.00 1.13 1.13 79 1011.7
20260506180638 56 208 3.0 9.0 0.00 1.13 1.13 79 1011.5